Time,TemperatureF,DewpointF,PressureIn,WindDirection,WindDirectionDegrees,WindSpeedMPH,WindSpeedGustMPH,Humidity,HourlyPrecipIn,Conditions,Clouds,dailyrainin,SoftwareType,DateUTC
2013-10-22 00:04:00,37.7,34.8,30.06,NW,307,0.0,0.0,89,0.00,,,0.00,Wunderground v.1.15,2013-10-22 05:04:00,
2013-10-22 00:10:00,37.7,35.6,30.07,NW,307,0.0,0.0,92,0.00,,,0.00,Wunderground v.1.15,2013-10-22 05:10:00,
2013-10-22 00:15:00,38.0,35.9,30.07,NW,308,0.0,0.0,92,0.00,,,0.00,Wunderground v.1.15,2013-10-22 05:15:00,
2013-10-22 00:20:00,37.8,35.7,30.06,NW,307,0.0,0.0,92,0.00,,,0.00,Wunderground v.1.15,2013-10-22 05:20:00,
2013-10-22 00:25:00,37.7,35.6,30.06,NW,307,0.0,0.0,92,0.00,,,0.00,Wunderground v.1.15,2013-10-22 05:25:00,
2013-10-22 00:31:00,37.4,35.3,30.06,NW,307,0.0,0.0,92,0.00,,,0.00,Wunderground v.1.15,2013-10-22 05:31:00,
2013-10-22 00:36:00,36.8,34.7,30.07,NW,307,0.0,0.0,92,0.00,,,0.00,Wunderground v.1.15,2013-10-22 05:36:00,
2013-10-22 00:41:00,36.3,34.2,30.07,NW,307,0.0,0.0,92,0.00,,,0.00,Wunderground v.1.15,2013-10-22 05:41:00,
2013-10-22 00:46:00,35.8,34.0,30.07,NW,307,0.0,0.0,93,0.00,,,0.00,Wunderground v.1.15,2013-10-22 05:46:00,
2013-10-22 00:51:00,35.7,34.1,30.07,NW,307,0.0,0.0,94,0.00,,,0.00,Wunderground v.1.15,2013-10-22 05:51:00,
2013-10-22 00:56:00,35.3,33.5,30.07,NW,307,0.0,0.0,93,0.00,,,0.00,Wunderground v.1.15,2013-10-22 05:56:00,
2013-10-22 01:02:00,35.5,33.9,30.07,NW,307,0.0,0.0,94,0.00,,,0.00,Wunderground v.1.15,2013-10-22 06:02:00,
2013-10-22 01:07:00,35.4,33.8,30.07,NW,307,0.0,0.0,94,0.00,,,0.00,Wunderground v.1.15,2013-10-22 06:07:00,
2013-10-22 01:13:00,35.1,33.5,30.07,NW,307,0.0,0.0,94,0.00,,,0.00,Wunderground v.1.15,2013-10-22 06:13:00,
2013-10-22 01:18:00,35.0,33.4,30.07,NW,307,0.0,0.0,94,0.00,,,0.00,Wunderground v.1.15,2013-10-22 06:18:00,
2013-10-22 01:24:00,34.7,33.2,30.07,NW,307,0.0,0.0,94,0.00,,,0.00,Wunderground v.1.15,2013-10-22 06:24:00,
2013-10-22 01:29:00,34.5,33.0,30.07,NW,307,0.0,0.0,94,0.00,,,0.00,Wunderground v.1.15,2013-10-22 06:29:00,
2013-10-22 01:34:00,34.6,33.3,30.07,NW,307,0.0,0.0,95,0.00,,,0.00,Wunderground v.1.15,2013-10-22 06:34:00,
2013-10-22 01:39:00,35.0,33.7,30.07,NW,307,0.0,0.0,95,0.00,,,0.00,Wunderground v.1.15,2013-10-22 06:39:00,
2013-10-22 01:44:00,34.9,33.6,30.08,NW,308,0.0,0.0,95,0.00,,,0.00,Wunderground v.1.15,2013-10-22 06:44:00,
2013-10-22 01:49:00,34.4,32.9,30.08,NW,307,0.0,0.0,94,0.00,,,0.00,Wunderground v.1.15,2013-10-22 06:49:00,
2013-10-22 01:54:00,34.1,32.6,30.08,NW,307,0.0,0.0,94,0.00,,,0.00,Wunderground v.1.15,2013-10-22 06:54:00,
2013-10-22 01:59:00,33.7,32.4,30.08,NW,307,0.0,0.0,95,0.00,,,0.00,Wunderground v.1.15,2013-10-22 06:59:00,
2013-10-22 02:05:00,33.3,32.0,30.08,NW,307,0.0,0.0,95,0.00,,,0.00,Wunderground v.1.15,2013-10-22 07:05:00,
2013-10-22 02:10:00,32.9,31.6,30.08,NW,307,0.0,0.0,95,0.00,,,0.00,Wunderground v.1.15,2013-10-22 07:10:00,
2013-10-22 02:15:00,32.7,31.4,30.08,NW,307,0.0,0.0,95,0.00,,,0.00,Wunderground v.1.15,2013-10-22 07:15:00,
2013-10-22 02:20:00,32.7,31.4,30.08,NW,307,0.0,0.0,95,0.00,,,0.00,Wunderground v.1.15,2013-10-22 07:20:00,
2013-10-22 02:25:00,32.7,31.4,30.08,NW,307,0.0,0.0,95,0.00,,,0.00,Wunderground v.1.15,2013-10-22 07:25:00,
2013-10-22 02:31:00,32.6,31.3,30.08,NW,307,0.0,0.0,95,0.00,,,0.00,Wunderground v.1.15,2013-10-22 07:31:00,
2013-10-22 02:36:00,32.8,31.5,30.08,NW,307,0.0,0.0,95,0.00,,,0.00,Wunderground v.1.15,2013-10-22 07:36:00,
2013-10-22 02:42:00,33.0,31.7,30.08,NW,307,0.0,0.0,95,0.00,,,0.00,Wunderground v.1.15,2013-10-22 07:42:00,
2013-10-22 02:47:00,33.2,31.9,30.08,NW,307,0.0,0.0,95,0.00,,,0.00,Wunderground v.1.15,2013-10-22 07:47:00,
2013-10-22 02:52:00,33.4,32.4,30.07,NW,307,0.0,0.0,96,0.00,,,0.00,Wunderground v.1.15,2013-10-22 07:52:00,
2013-10-22 02:57:00,33.3,32.0,30.07,NW,307,0.0,0.0,95,0.00,,,0.00,Wunderground v.1.15,2013-10-22 07:57:00,
2013-10-22 03:03:00,33.1,31.8,30.07,NW,308,0.0,0.0,95,0.00,,,0.00,Wunderground v.1.15,2013-10-22 08:03:00,
2013-10-22 03:08:00,33.2,32.2,30.07,NW,307,0.0,0.0,96,0.00,,,0.00,Wunderground v.1.15,2013-10-22 08:08:00,
2013-10-22 03:13:00,33.5,32.5,30.07,NW,308,0.0,0.0,96,0.00,,,0.00,Wunderground v.1.15,2013-10-22 08:13:00,
2013-10-22 03:18:00,33.6,32.6,30.07,NW,307,0.0,0.0,96,0.00,,,0.00,Wunderground v.1.15,2013-10-22 08:18:00,
2013-10-22 03:24:00,33.5,32.5,30.07,NW,307,0.0,0.0,96,0.00,,,0.00,Wunderground v.1.15,2013-10-22 08:24:00,
2013-10-22 03:29:00,33.3,32.3,30.07,NW,308,0.0,0.0,96,0.00,,,0.00,Wunderground v.1.15,2013-10-22 08:29:00,
2013-10-22 03:34:00,33.2,32.2,30.07,NW,308,0.0,0.0,96,0.00,,,0.00,Wunderground v.1.15,2013-10-22 08:34:00,
2013-10-22 03:39:00,32.8,31.8,30.07,NW,307,0.0,0.0,96,0.00,,,0.00,Wunderground v.1.15,2013-10-22 08:39:00,
2013-10-22 03:44:00,32.4,31.1,30.07,NW,307,0.0,0.0,95,0.00,,,0.00,Wunderground v.1.15,2013-10-22 08:44:00,
2013-10-22 03:49:00,32.1,31.1,30.07,NW,307,0.0,0.0,96,0.00,,,0.00,Wunderground v.1.15,2013-10-22 08:49:00,
2013-10-22 03:54:00,32.4,31.4,30.07,NW,307,0.0,0.0,96,0.00,,,0.00,Wunderground v.1.15,2013-10-22 08:54:00,
2013-10-22 04:00:00,32.4,31.4,30.07,NW,308,0.0,0.0,96,0.00,,,0.00,Wunderground v.1.15,2013-10-22 09:00:00,
2013-10-22 04:06:00,31.8,30.8,30.07,NW,307,0.0,0.0,96,0.00,,,0.00,Wunderground v.1.15,2013-10-22 09:06:00,
2013-10-22 04:11:00,31.8,30.8,30.07,NW,307,0.0,0.0,96,0.00,,,0.00,Wunderground v.1.15,2013-10-22 09:11:00,
2013-10-22 04:17:00,31.7,30.7,30.07,NW,308,0.0,0.0,96,0.00,,,0.00,Wunderground v.1.15,2013-10-22 09:17:00,
2013-10-22 04:22:00,32.1,31.1,30.07,NW,312,0.0,0.0,96,0.00,,,0.00,Wunderground v.1.15,2013-10-22 09:22:00,
2013-10-22 04:27:00,32.1,31.1,30.07,NW,314,0.0,1.0,96,0.00,,,0.00,Wunderground v.1.15,2013-10-22 09:27:00,
2013-10-22 04:32:00,32.1,31.1,30.07,NW,313,0.0,1.0,96,0.00,,,0.00,Wunderground v.1.15,2013-10-22 09:32:00,
2013-10-22 04:37:00,31.5,30.5,30.07,NW,312,0.0,1.0,96,0.00,,,0.00,Wunderground v.1.15,2013-10-22 09:37:00,
2013-10-22 04:42:00,31.4,30.4,30.07,NW,312,0.0,0.0,96,0.00,,,0.00,Wunderground v.1.15,2013-10-22 09:42:00,
2013-10-22 04:48:00,31.6,30.6,30.07,NW,312,0.0,0.0,96,0.00,,,0.00,Wunderground v.1.15,2013-10-22 09:48:00,
2013-10-22 04:53:00,31.4,30.4,30.07,NW,312,0.0,0.0,96,0.00,,,0.00,Wunderground v.1.15,2013-10-22 09:53:00,
2013-10-22 04:58:00,31.8,30.8,30.07,NW,312,0.0,0.0,96,0.00,,,0.00,Wunderground v.1.15,2013-10-22 09:58:00,
2013-10-22 05:03:00,31.9,30.9,30.07,NW,312,0.0,0.0,96,0.00,,,0.00,Wunderground v.1.15,2013-10-22 10:03:00,
2013-10-22 05:08:00,32.0,31.0,30.07,NW,312,0.0,0.0,96,0.00,,,0.00,Wunderground v.1.15,2013-10-22 10:08:00,
2013-10-22 05:13:00,32.2,31.2,30.06,NW,312,0.0,0.0,96,0.00,,,0.00,Wunderground v.1.15,2013-10-22 10:13:00,
2013-10-22 05:18:00,32.2,31.2,30.06,NW,313,0.0,0.0,96,0.00,,,0.00,Wunderground v.1.15,2013-10-22 10:18:00,
2013-10-22 05:24:00,32.3,31.3,30.07,NW,313,0.0,0.0,96,0.00,,,0.00,Wunderground v.1.15,2013-10-22 10:24:00,
2013-10-22 05:29:00,32.0,31.0,30.07,NW,314,0.0,0.0,96,0.00,,,0.00,Wunderground v.1.15,2013-10-22 10:29:00,
2013-10-22 05:34:00,31.6,30.6,30.07,NW,313,0.0,0.0,96,0.00,,,0.00,Wunderground v.1.15,2013-10-22 10:34:00,
2013-10-22 05:39:00,31.3,30.3,30.07,NW,314,0.0,0.0,96,0.00,,,0.00,Wunderground v.1.15,2013-10-22 10:39:00,
2013-10-22 05:44:00,31.5,30.5,30.07,NW,312,0.0,0.0,96,0.00,,,0.00,Wunderground v.1.15,2013-10-22 10:44:00,
2013-10-22 05:50:00,32.0,31.0,30.07,NW,312,0.0,0.0,96,0.00,,,0.00,Wunderground v.1.15,2013-10-22 10:50:00,
2013-10-22 05:55:00,31.9,30.9,30.06,NW,312,0.0,0.0,96,0.00,,,0.00,Wunderground v.1.15,2013-10-22 10:55:00,
2013-10-22 06:00:00,31.9,30.9,30.06,NW,312,0.0,0.0,96,0.00,,,0.00,Wunderground v.1.15,2013-10-22 11:00:00,
2013-10-22 06:06:00,31.9,30.9,30.06,NW,312,0.0,0.0,96,0.00,,,0.00,Wunderground v.1.15,2013-10-22 11:06:00,
2013-10-22 06:11:00,31.9,30.9,30.07,NW,312,0.0,0.0,96,0.00,,,0.00,Wunderground v.1.15,2013-10-22 11:11:00,
2013-10-22 06:17:00,31.5,30.5,30.07,NW,312,0.0,0.0,96,0.00,,,0.00,Wunderground v.1.15,2013-10-22 11:17:00,
2013-10-22 06:22:00,31.2,30.2,30.07,NW,312,0.0,0.0,96,0.00,,,0.00,Wunderground v.1.15,2013-10-22 11:22:00,
2013-10-22 06:27:00,31.1,30.1,30.07,NW,312,0.0,0.0,96,0.00,,,0.00,Wunderground v.1.15,2013-10-22 11:27:00,
2013-10-22 06:32:00,31.1,30.1,30.06,NW,312,0.0,0.0,96,0.00,,,0.00,Wunderground v.1.15,2013-10-22 11:32:00,
2013-10-22 06:37:00,31.3,30.5,30.06,NW,313,0.0,0.0,97,0.00,,,0.00,Wunderground v.1.15,2013-10-22 11:37:00,
2013-10-22 06:42:00,31.3,30.5,30.06,NW,314,0.0,0.0,97,0.00,,,0.00,Wunderground v.1.15,2013-10-22 11:42:00,
2013-10-22 06:47:00,31.4,30.6,30.06,NW,313,0.0,0.0,97,0.00,,,0.00,Wunderground v.1.15,2013-10-22 11:47:00,
2013-10-22 06:52:00,31.5,30.7,30.06,NW,312,0.0,0.0,97,0.00,,,0.00,Wunderground v.1.15,2013-10-22 11:52:00,
2013-10-22 06:57:00,31.6,30.8,30.06,NW,312,0.0,0.0,97,0.00,,,0.00,Wunderground v.1.15,2013-10-22 11:57:00,
2013-10-22 07:03:00,31.6,30.8,30.06,NW,312,0.0,0.0,97,0.00,,,0.00,Wunderground v.1.15,2013-10-22 12:03:00,
2013-10-22 07:08:00,31.6,30.8,30.07,NW,313,0.0,0.0,97,0.00,,,0.00,Wunderground v.1.15,2013-10-22 12:08:00,
2013-10-22 07:13:00,31.8,31.0,30.06,NW,312,0.0,0.0,97,0.00,,,0.00,Wunderground v.1.15,2013-10-22 12:13:00,
2013-10-22 07:18:00,31.8,31.0,30.06,NW,312,0.0,0.0,97,0.00,,,0.00,Wunderground v.1.15,2013-10-22 12:18:00,
2013-10-22 07:23:00,31.8,31.0,30.06,NW,312,0.0,0.0,97,0.00,,,0.00,Wunderground v.1.15,2013-10-22 12:23:00,
2013-10-22 07:28:00,31.8,31.0,30.06,NW,312,0.0,0.0,97,0.00,,,0.00,Wunderground v.1.15,2013-10-22 12:28:00,
2013-10-22 07:33:00,31.7,30.9,30.06,NW,312,0.0,0.0,97,0.00,,,0.00,Wunderground v.1.15,2013-10-22 12:33:00,
2013-10-22 07:38:00,31.6,30.8,30.06,NW,312,0.0,0.0,97,0.00,,,0.00,Wunderground v.1.15,2013-10-22 12:38:00,
2013-10-22 07:43:00,31.4,30.6,30.06,NW,312,0.0,0.0,97,0.00,,,0.00,Wunderground v.1.15,2013-10-22 12:43:00,
2013-10-22 07:48:00,31.6,30.8,30.06,NW,312,0.0,0.0,97,0.00,,,0.00,Wunderground v.1.15,2013-10-22 12:48:00,
2013-10-22 07:53:00,32.2,31.4,30.06,NW,312,0.0,0.0,97,0.00,,,0.00,Wunderground v.1.15,2013-10-22 12:53:00,
2013-10-22 07:58:00,33.2,32.4,30.06,NW,313,0.0,0.0,97,0.00,,,0.00,Wunderground v.1.15,2013-10-22 12:58:00,
2013-10-22 08:04:00,34.8,34.0,30.06,NW,315,0.0,0.0,97,0.00,,,0.00,Wunderground v.1.15,2013-10-22 13:04:00,
2013-10-22 08:09:00,36.2,35.4,30.07,NW,313,0.0,0.0,97,0.00,,,0.00,Wunderground v.1.15,2013-10-22 13:09:00,
2013-10-22 08:14:00,37.4,36.6,30.07,NW,313,0.0,0.0,97,0.00,,,0.00,Wunderground v.1.15,2013-10-22 13:14:00,
2013-10-22 08:19:00,37.6,36.8,30.07,NW,313,0.0,0.0,97,0.00,,,0.00,Wunderground v.1.15,2013-10-22 13:19:00,
2013-10-22 08:24:00,37.3,36.3,30.07,NW,313,0.0,0.0,96,0.00,,,0.00,Wunderground v.1.15,2013-10-22 13:24:00,
2013-10-22 08:29:00,37.7,36.7,30.07,NW,313,0.0,0.0,96,0.00,,,0.00,Wunderground v.1.15,2013-10-22 13:29:00,
2013-10-22 08:34:00,38.2,37.2,30.07,NW,314,0.0,0.0,96,0.00,,,0.00,Wunderground v.1.15,2013-10-22 13:34:00,
2013-10-22 08:39:00,39.5,38.7,30.07,South,169,0.0,0.0,97,0.00,,,0.00,Wunderground v.1.15,2013-10-22 13:39:00,
2013-10-22 08:44:00,40.4,39.6,30.07,South,174,0.0,0.0,97,0.00,,,0.00,Wunderground v.1.15,2013-10-22 13:44:00,
2013-10-22 08:49:00,41.2,40.4,30.06,SSE,153,0.0,0.0,97,0.00,,,0.00,Wunderground v.1.15,2013-10-22 13:49:00,
2013-10-22 08:54:00,41.8,41.0,30.07,SSE,160,0.0,0.0,97,0.00,,,0.00,Wunderground v.1.15,2013-10-22 13:54:00,
2013-10-22 08:59:00,42.3,41.5,30.07,SE,136,0.0,0.0,97,0.00,,,0.00,Wunderground v.1.15,2013-10-22 13:59:00,
2013-10-22 09:05:00,42.8,42.0,30.06,SSW,197,0.0,2.0,97,0.00,,,0.00,Wunderground v.1.15,2013-10-22 14:05:00,
2013-10-22 09:10:00,42.8,42.0,30.06,SSW,205,1.0,1.0,97,0.00,,,0.00,Wunderground v.1.15,2013-10-22 14:10:00,
2013-10-22 09:15:00,43.4,42.3,30.06,ESE,119,1.0,3.0,96,0.00,,,0.00,Wunderground v.1.15,2013-10-22 14:15:00,
2013-10-22 09:21:00,44.0,42.4,30.05,West,263,1.0,1.0,94,0.00,,,0.00,Wunderground v.1.15,2013-10-22 14:21:00,
2013-10-22 09:26:00,44.9,42.7,30.05,WSW,256,1.0,3.0,92,0.00,,,0.00,Wunderground v.1.15,2013-10-22 14:26:00,
2013-10-22 09:31:00,45.6,42.3,30.04,ESE,118,1.0,2.0,88,0.00,,,0.00,Wunderground v.1.15,2013-10-22 14:31:00,
2013-10-22 09:36:00,46.3,42.0,30.03,South,174,1.0,3.0,85,0.00,,,0.00,Wunderground v.1.15,2013-10-22 14:36:00,
2013-10-22 09:41:00,47.3,42.4,30.04,WNW,297,1.0,3.0,83,0.00,,,0.00,Wunderground v.1.15,2013-10-22 14:41:00,
2013-10-22 09:47:00,47.7,40.5,30.05,WNW,301,1.0,3.0,76,0.00,,,0.00,Wunderground v.1.15,2013-10-22 14:47:00,
2013-10-22 09:52:00,48.1,40.9,30.05,WSW,252,1.0,1.0,76,0.00,,,0.00,Wunderground v.1.15,2013-10-22 14:52:00,
2013-10-22 09:57:00,48.7,41.1,30.04,WSW,243,0.0,1.0,75,0.00,,,0.00,Wunderground v.1.15,2013-10-22 14:57:00,
2013-10-22 10:03:00,49.5,41.2,30.04,ENE,77,1.0,2.0,73,0.00,,,0.00,Wunderground v.1.15,2013-10-22 15:03:00,
2013-10-22 10:08:00,50.1,39.9,30.04,SSW,205,1.0,3.0,68,0.00,,,0.00,Wunderground v.1.15,2013-10-22 15:08:00,
2013-10-22 10:13:00,50.3,39.8,30.04,SW,218,2.0,5.0,67,0.00,,,0.00,Wunderground v.1.15,2013-10-22 15:13:00,
2013-10-22 10:18:00,50.4,39.5,30.03,SW,229,2.0,5.0,66,0.00,,,0.00,Wunderground v.1.15,2013-10-22 15:18:00,
2013-10-22 10:23:00,50.9,39.1,30.03,WNW,297,2.0,3.0,64,0.00,,,0.00,Wunderground v.1.15,2013-10-22 15:23:00,
2013-10-22 10:29:00,51.5,39.3,30.03,West,281,2.0,4.0,63,0.00,,,0.00,Wunderground v.1.15,2013-10-22 15:29:00,
2013-10-22 10:34:00,51.7,39.1,30.03,West,276,2.0,6.0,62,0.00,,,0.00,Wunderground v.1.15,2013-10-22 15:34:00,
2013-10-22 10:39:00,51.9,38.9,30.03,West,267,3.0,7.0,61,0.00,,,0.00,Wunderground v.1.15,2013-10-22 15:39:00,
2013-10-22 10:44:00,52.3,39.2,30.02,SSE,153,3.0,3.0,61,0.00,,,0.00,Wunderground v.1.15,2013-10-22 15:44:00,
2013-10-22 10:49:00,52.9,38.5,30.02,WNW,294,2.0,4.0,58,0.00,,,0.00,Wunderground v.1.15,2013-10-22 15:49:00,
2013-10-22 10:54:00,53.0,38.6,30.02,South,180,3.0,4.0,58,0.00,,,0.00,Wunderground v.1.15,2013-10-22 15:54:00,
2013-10-22 10:59:00,53.3,39.8,30.02,SE,146,3.0,4.0,60,0.00,,,0.00,Wunderground v.1.15,2013-10-22 15:59:00,
2013-10-22 11:05:00,53.5,39.5,30.02,West,266,2.0,2.0,59,0.00,,,0.00,Wunderground v.1.15,2013-10-22 16:05:00,
2013-10-22 11:11:00,53.8,38.5,30.02,WSW,239,2.0,2.0,56,0.00,,,0.00,Wunderground v.1.15,2013-10-22 16:11:00,
2013-10-22 11:16:00,53.8,38.9,30.01,SW,235,2.0,2.0,57,0.00,,,0.00,Wunderground v.1.15,2013-10-22 16:16:00,
2013-10-22 11:21:00,53.6,38.3,30.01,WSW,243,2.0,5.0,56,0.00,,,0.00,Wunderground v.1.15,2013-10-22 16:21:00,
2013-10-22 11:26:00,53.5,38.2,30.01,SW,224,3.0,5.0,56,0.00,,,0.00,Wunderground v.1.15,2013-10-22 16:26:00,
2013-10-22 11:31:00,53.6,38.7,30.01,ENE,70,2.0,3.0,57,0.00,,,0.00,Wunderground v.1.15,2013-10-22 16:31:00,
2013-10-22 11:36:00,53.6,38.3,30.01,SW,236,2.0,6.0,56,0.00,,,0.00,Wunderground v.1.15,2013-10-22 16:36:00,
2013-10-22 11:41:00,53.7,38.4,30.00,SE,127,3.0,8.0,56,0.00,,,0.00,Wunderground v.1.15,2013-10-22 16:41:00,
2013-10-22 11:46:00,53.5,39.1,30.00,West,264,3.0,8.0,58,0.00,,,0.00,Wunderground v.1.15,2013-10-22 16:46:00,
2013-10-22 11:52:00,53.4,38.5,30.00,WSW,247,2.0,3.0,57,0.00,,,0.00,Wunderground v.1.15,2013-10-22 16:52:00,
2013-10-22 11:57:00,53.4,39.0,30.00,West,273,2.0,4.0,58,0.00,,,0.00,Wunderground v.1.15,2013-10-22 16:57:00,
2013-10-22 12:02:00,53.3,38.9,30.00,SSW,200,1.0,2.0,58,0.00,,,0.00,Wunderground v.1.15,2013-10-22 17:02:00,
2013-10-22 12:07:00,53.1,38.7,29.99,SSW,192,1.0,3.0,58,0.00,,,0.00,Wunderground v.1.15,2013-10-22 17:07:00,
2013-10-22 12:12:00,52.9,38.1,29.99,WSW,242,2.0,5.0,57,0.00,,,0.00,Wunderground v.1.15,2013-10-22 17:12:00,
2013-10-22 12:17:00,52.8,38.0,29.99,WSW,249,2.0,5.0,57,0.00,,,0.00,Wunderground v.1.15,2013-10-22 17:17:00,
2013-10-22 12:22:00,53.0,38.6,29.99,SW,226,2.0,5.0,58,0.00,,,0.00,Wunderground v.1.15,2013-10-22 17:22:00,
2013-10-22 12:27:00,53.3,38.4,29.99,WSW,240,3.0,6.0,57,0.00,,,0.00,Wunderground v.1.15,2013-10-22 17:27:00,
2013-10-22 12:33:00,53.6,38.7,29.98,WNW,294,3.0,6.0,57,0.00,,,0.00,Wunderground v.1.15,2013-10-22 17:33:00,
2013-10-22 12:38:00,54.2,39.3,29.98,East,89,3.0,6.0,57,0.00,,,0.00,Wunderground v.1.15,2013-10-22 17:38:00,
2013-10-22 12:43:00,54.5,38.7,29.98,SW,217,3.0,4.0,55,0.00,,,0.00,Wunderground v.1.15,2013-10-22 17:43:00,
2013-10-22 12:49:00,54.8,39.4,29.97,South,181,2.0,4.0,56,0.00,,,0.00,Wunderground v.1.15,2013-10-22 17:49:00,
2013-10-22 12:54:00,55.1,38.7,29.97,SSE,148,2.0,7.0,54,0.00,,,0.00,Wunderground v.1.15,2013-10-22 17:54:00,
2013-10-22 12:59:00,55.5,39.1,29.97,SW,236,3.0,7.0,54,0.00,,,0.00,Wunderground v.1.15,2013-10-22 17:59:00,
2013-10-22 13:05:00,56.1,39.2,29.96,West,266,3.0,3.0,53,0.00,,,0.00,Wunderground v.1.15,2013-10-22 18:05:00,
2013-10-22 13:10:00,56.1,38.7,29.96,SE,139,3.0,3.0,52,0.00,,,0.00,Wunderground v.1.15,2013-10-22 18:10:00,
2013-10-22 13:15:00,56.1,38.7,29.95,ESE,113,4.0,4.0,52,0.00,,,0.00,Wunderground v.1.15,2013-10-22 18:15:00,
2013-10-22 13:20:00,56.1,39.2,29.94,ESE,120,3.0,7.0,53,0.00,,,0.00,Wunderground v.1.15,2013-10-22 18:20:00,
2013-10-22 13:25:00,56.2,38.8,29.94,SE,128,3.0,7.0,52,0.00,,,0.00,Wunderground v.1.15,2013-10-22 18:25:00,
2013-10-22 13:31:00,56.3,38.4,29.93,SE,129,3.0,3.0,51,0.00,,,0.00,Wunderground v.1.15,2013-10-22 18:31:00,
2013-10-22 13:36:00,56.2,37.8,29.93,West,266,4.0,8.0,50,0.00,,,0.00,Wunderground v.1.15,2013-10-22 18:36:00,
2013-10-22 13:41:00,56.1,38.2,29.93,SW,224,3.0,3.0,51,0.00,,,0.00,Wunderground v.1.15,2013-10-22 18:41:00,
2013-10-22 13:46:00,55.9,38.5,29.92,West,270,2.0,5.0,52,0.00,,,0.00,Wunderground v.1.15,2013-10-22 18:46:00,
2013-10-22 13:51:00,56.0,38.6,29.92,SW,219,2.0,3.0,52,0.00,,,0.00,Wunderground v.1.15,2013-10-22 18:51:00,
2013-10-22 13:57:00,56.2,38.3,29.92,West,266,2.0,5.0,51,0.00,,,0.00,Wunderground v.1.15,2013-10-22 18:57:00,
2013-10-22 14:02:00,56.3,38.4,29.92,WSW,252,3.0,3.0,51,0.00,,,0.00,Wunderground v.1.15,2013-10-22 19:02:00,
2013-10-22 14:07:00,56.3,38.4,29.92,WNW,285,3.0,3.0,51,0.00,,,0.00,Wunderground v.1.15,2013-10-22 19:07:00,
2013-10-22 14:13:00,56.5,39.6,29.91,SE,143,2.0,6.0,53,0.00,,,0.00,Wunderground v.1.15,2013-10-22 19:13:00,
2013-10-22 14:18:00,56.3,38.9,29.91,West,273,3.0,6.0,52,0.00,,,0.00,Wunderground v.1.15,2013-10-22 19:18:00,
2013-10-22 14:24:00,56.1,38.7,29.91,WNW,287,3.0,9.0,52,0.00,,,0.00,Wunderground v.1.15,2013-10-22 19:24:00,
2013-10-22 14:29:00,56.0,38.6,29.90,WNW,302,3.0,9.0,52,0.00,,,0.00,Wunderground v.1.15,2013-10-22 19:29:00,
2013-10-22 14:34:00,56.1,38.7,29.90,West,259,3.0,4.0,52,0.00,,,0.00,Wunderground v.1.15,2013-10-22 19:34:00,
2013-10-22 14:39:00,56.6,39.2,29.90,South,174,3.0,5.0,52,0.00,,,0.00,Wunderground v.1.15,2013-10-22 19:39:00,
2013-10-22 14:44:00,56.4,38.0,29.89,WSW,253,3.0,7.0,50,0.00,,,0.00,Wunderground v.1.15,2013-10-22 19:44:00,
2013-10-22 14:49:00,56.2,38.3,29.89,NW,304,3.0,7.0,51,0.00,,,0.00,Wunderground v.1.15,2013-10-22 19:49:00,
2013-10-22 14:55:00,55.9,38.0,29.88,SSW,212,3.0,6.0,51,0.00,,,0.00,Wunderground v.1.15,2013-10-22 19:55:00,
2013-10-22 15:00:00,55.9,39.0,29.88,SSE,165,2.0,2.0,53,0.00,,,0.00,Wunderground v.1.15,2013-10-22 20:00:00,
2013-10-22 15:06:00,56.1,38.7,29.88,West,259,2.0,6.0,52,0.00,,,0.00,Wunderground v.1.15,2013-10-22 20:06:00,
2013-10-22 15:11:00,56.2,39.3,29.87,East,82,3.0,4.0,53,0.00,,,0.00,Wunderground v.1.15,2013-10-22 20:11:00,
2013-10-22 15:16:00,56.5,39.1,29.87,SW,235,2.0,4.0,52,0.00,,,0.00,Wunderground v.1.15,2013-10-22 20:16:00,
2013-10-22 15:21:00,56.5,39.1,29.86,East,91,2.0,5.0,52,0.00,,,0.00,Wunderground v.1.15,2013-10-22 20:21:00,
2013-10-22 15:26:00,56.4,38.5,29.86,ESE,108,3.0,10.0,51,0.00,,,0.00,Wunderground v.1.15,2013-10-22 20:26:00,
2013-10-22 15:31:00,56.4,39.5,29.86,SSE,153,3.0,3.0,53,0.00,,,0.00,Wunderground v.1.15,2013-10-22 20:31:00,
2013-10-22 15:36:00,56.1,38.7,29.86,West,276,3.0,7.0,52,0.00,,,0.00,Wunderground v.1.15,2013-10-22 20:36:00,
2013-10-22 15:42:00,56.1,38.7,29.85,ENE,68,3.0,8.0,52,0.00,,,0.00,Wunderground v.1.15,2013-10-22 20:42:00,
2013-10-22 15:47:00,56.0,39.1,29.85,SSW,205,3.0,8.0,53,0.00,,,0.00,Wunderground v.1.15,2013-10-22 20:47:00,
2013-10-22 15:52:00,55.9,39.0,29.85,ESE,113,3.0,3.0,53,0.00,,,0.00,Wunderground v.1.15,2013-10-22 20:52:00,
2013-10-22 15:57:00,55.9,39.0,29.85,West,277,2.0,3.0,53,0.00,,,0.00,Wunderground v.1.15,2013-10-22 20:57:00,
2013-10-22 16:03:00,56.0,39.1,29.84,SE,143,2.0,5.0,53,0.00,,,0.00,Wunderground v.1.15,2013-10-22 21:03:00,
2013-10-22 16:08:00,56.0,39.6,29.84,East,86,2.0,8.0,54,0.00,,,0.00,Wunderground v.1.15,2013-10-22 21:08:00,
2013-10-22 16:14:00,56.1,39.7,29.84,ESE,118,2.0,7.0,54,0.00,,,0.00,Wunderground v.1.15,2013-10-22 21:14:00,
2013-10-22 16:19:00,56.1,40.1,29.84,ENE,64,2.0,7.0,55,0.00,,,0.00,Wunderground v.1.15,2013-10-22 21:19:00,
2013-10-22 16:24:00,56.2,39.8,29.84,SSW,208,2.0,3.0,54,0.00,,,0.00,Wunderground v.1.15,2013-10-22 21:24:00,
2013-10-22 16:29:00,56.3,39.9,29.84,SE,137,2.0,5.0,54,0.00,,,0.00,Wunderground v.1.15,2013-10-22 21:29:00,
2013-10-22 16:34:00,56.4,39.5,29.84,East,85,3.0,6.0,53,0.00,,,0.00,Wunderground v.1.15,2013-10-22 21:34:00,
2013-10-22 16:39:00,56.2,39.8,29.84,SSW,201,3.0,6.0,54,0.00,,,0.00,Wunderground v.1.15,2013-10-22 21:39:00,
2013-10-22 16:45:00,55.8,39.9,29.85,SSE,155,3.0,5.0,55,0.00,,,0.00,Wunderground v.1.15,2013-10-22 21:45:00,
2013-10-22 16:50:00,55.5,39.6,29.85,WNW,288,2.0,5.0,55,0.00,,,0.00,Wunderground v.1.15,2013-10-22 21:50:00,
2013-10-22 16:55:00,55.3,39.9,29.84,SE,139,3.0,5.0,56,0.00,,,0.00,Wunderground v.1.15,2013-10-22 21:55:00,
2013-10-22 17:00:00,55.1,40.6,29.83,WSW,240,2.0,2.0,58,0.00,,,0.00,Wunderground v.1.15,2013-10-22 22:00:00,
2013-10-22 17:06:00,54.7,41.5,29.83,NNW,333,2.0,4.0,61,0.00,,,0.00,Wunderground v.1.15,2013-10-22 22:06:00,
2013-10-22 17:12:00,54.2,41.5,29.84,WSW,245,2.0,4.0,62,0.00,,,0.00,Wunderground v.1.15,2013-10-22 22:12:00,
2013-10-22 17:17:00,54.0,41.7,29.84,West,271,2.0,4.0,63,0.00,,,0.00,Wunderground v.1.15,2013-10-22 22:17:00,
2013-10-22 17:22:00,53.9,41.2,29.84,WNW,300,2.0,2.0,62,0.00,,,0.00,Wunderground v.1.15,2013-10-22 22:22:00,
2013-10-22 17:27:00,53.9,41.2,29.84,SSW,211,2.0,3.0,62,0.00,,,0.00,Wunderground v.1.15,2013-10-22 22:27:00,
2013-10-22 17:32:00,54.1,41.4,29.84,SW,231,2.0,3.0,62,0.00,,,0.00,Wunderground v.1.15,2013-10-22 22:32:00,
2013-10-22 17:37:00,54.5,41.7,29.83,SW,231,1.0,3.0,62,0.00,,,0.00,Wunderground v.1.15,2013-10-22 22:37:00,
2013-10-22 17:43:00,54.5,41.7,29.83,WSW,245,1.0,3.0,62,0.00,,,0.00,Wunderground v.1.15,2013-10-22 22:43:00,
2013-10-22 17:48:00,54.2,41.9,29.83,WSW,248,1.0,3.0,63,0.00,,,0.00,Wunderground v.1.15,2013-10-22 22:48:00,
2013-10-22 17:53:00,53.9,41.2,29.83,WSW,257,1.0,3.0,62,0.00,,,0.00,Wunderground v.1.15,2013-10-22 22:53:00,
2013-10-22 17:58:00,53.7,41.4,29.83,West,271,2.0,3.0,63,0.00,,,0.00,Wunderground v.1.15,2013-10-22 22:58:00,
2013-10-22 18:03:00,53.3,41.4,29.83,SW,214,1.0,2.0,64,0.00,,,0.00,Wunderground v.1.15,2013-10-22 23:03:00,
2013-10-22 18:08:00,53.1,41.2,29.83,West,278,1.0,2.0,64,0.00,,,0.00,Wunderground v.1.15,2013-10-22 23:08:00,
2013-10-22 18:14:00,52.9,41.4,29.83,WSW,240,1.0,1.0,65,0.00,,,0.00,Wunderground v.1.15,2013-10-22 23:14:00,
2013-10-22 18:19:00,52.8,41.7,29.83,SE,142,1.0,2.0,66,0.00,,,0.00,Wunderground v.1.15,2013-10-22 23:19:00,
2013-10-22 18:25:00,52.7,41.7,29.83,West,260,1.0,2.0,66,0.00,,,0.00,Wunderground v.1.15,2013-10-22 23:25:00,
2013-10-22 18:30:00,52.7,41.7,29.83,West,276,1.0,2.0,66,0.00,,,0.00,Wunderground v.1.15,2013-10-22 23:30:00,
2013-10-22 18:35:00,52.7,42.4,29.82,SSE,152,1.0,2.0,68,0.00,,,0.00,Wunderground v.1.15,2013-10-22 23:35:00,
2013-10-22 18:40:00,52.3,41.7,29.82,SE,142,0.0,0.0,67,0.00,,,0.00,Wunderground v.1.15,2013-10-22 23:40:00,
2013-10-22 18:45:00,51.9,41.7,29.82,SSE,151,0.0,1.0,68,0.00,,,0.00,Wunderground v.1.15,2013-10-22 23:45:00,
2013-10-22 18:50:00,51.4,41.6,29.83,SSW,208,0.0,0.0,69,0.00,,,0.00,Wunderground v.1.15,2013-10-22 23:50:00,
2013-10-22 18:55:00,50.8,41.7,29.82,SSE,158,0.0,1.0,71,0.00,,,0.00,Wunderground v.1.15,2013-10-22 23:55:00,
2013-10-22 19:00:00,50.4,42.1,29.82,East,95,0.0,0.0,73,0.00,,,0.00,Wunderground v.1.15,2013-10-23 00:00:00,
2013-10-22 19:06:00,50.1,42.1,29.82,SE,143,0.0,0.0,74,0.00,,,0.00,Wunderground v.1.15,2013-10-23 00:06:00,
2013-10-22 19:11:00,49.9,41.9,29.82,SSE,165,0.0,1.0,74,0.00,,,0.00,Wunderground v.1.15,2013-10-23 00:11:00,
2013-10-22 19:16:00,49.9,42.3,29.82,ESE,105,0.0,1.0,75,0.00,,,0.00,Wunderground v.1.15,2013-10-23 00:16:00,
2013-10-22 19:22:00,49.9,42.3,29.82,SW,217,0.0,0.0,75,0.00,,,0.00,Wunderground v.1.15,2013-10-23 00:22:00,
2013-10-22 19:27:00,49.9,42.3,29.83,SW,217,0.0,0.0,75,0.00,,,0.00,Wunderground v.1.15,2013-10-23 00:27:00,
2013-10-22 19:32:00,50.0,42.4,29.84,West,260,0.0,0.0,75,0.00,,,0.00,Wunderground v.1.15,2013-10-23 00:32:00,
2013-10-22 19:37:00,50.4,42.8,29.84,West,260,0.0,1.0,75,0.00,,,0.00,Wunderground v.1.15,2013-10-23 00:37:00,
2013-10-22 19:42:00,50.6,43.3,29.84,West,274,1.0,1.0,76,0.00,,,0.00,Wunderground v.1.15,2013-10-23 00:42:00,
2013-10-22 19:47:00,50.4,43.8,29.84,WNW,285,1.0,2.0,78,0.00,,,0.01,Wunderground v.1.15,2013-10-23 00:47:00,
2013-10-22 19:53:00,50.0,44.4,29.85,WNW,291,1.0,2.0,81,0.00,,,0.01,Wunderground v.1.15,2013-10-23 00:53:00,
2013-10-22 19:58:00,49.6,44.6,29.85,SE,138,1.0,2.0,83,0.00,,,0.01,Wunderground v.1.15,2013-10-23 00:58:00,
2013-10-22 20:04:00,49.2,44.6,29.85,NW,304,0.0,1.0,84,0.00,,,0.01,Wunderground v.1.15,2013-10-23 01:04:00,
2013-10-22 20:09:00,48.9,45.2,29.85,WNW,285,0.0,1.0,87,0.00,,,0.01,Wunderground v.1.15,2013-10-23 01:09:00,
2013-10-22 20:14:00,48.7,45.0,29.85,SW,236,1.0,2.0,87,0.00,,,0.01,Wunderground v.1.15,2013-10-23 01:14:00,
2013-10-22 20:19:00,48.9,45.2,29.85,WSW,256,1.0,4.0,87,0.00,,,0.01,Wunderground v.1.15,2013-10-23 01:19:00,
2013-10-22 20:25:00,49.1,45.4,29.84,West,276,2.0,3.0,87,0.00,,,0.01,Wunderground v.1.15,2013-10-23 01:25:00,
2013-10-22 20:30:00,49.1,45.7,29.84,WSW,243,1.0,1.0,88,0.00,,,0.01,Wunderground v.1.15,2013-10-23 01:30:00,
2013-10-22 20:35:00,48.9,45.5,29.84,SSW,213,0.0,1.0,88,0.00,,,0.01,Wunderground v.1.15,2013-10-23 01:35:00,
2013-10-22 20:41:00,48.7,45.6,29.84,SW,235,0.0,0.0,89,0.00,,,0.01,Wunderground v.1.15,2013-10-23 01:41:00,
2013-10-22 20:46:00,48.5,45.4,29.84,SSE,155,0.0,0.0,89,0.00,,,0.01,Wunderground v.1.15,2013-10-23 01:46:00,
2013-10-22 20:51:00,48.2,45.4,29.84,WSW,243,0.0,0.0,90,0.00,,,0.01,Wunderground v.1.15,2013-10-23 01:51:00,
2013-10-22 20:56:00,47.9,45.1,29.84,WSW,242,0.0,0.0,90,0.00,,,0.01,Wunderground v.1.15,2013-10-23 01:56:00,
2013-10-22 21:02:00,47.4,44.6,29.84,WSW,242,0.0,0.0,90,0.00,,,0.01,Wunderground v.1.15,2013-10-23 02:02:00,
2013-10-22 21:07:00,46.9,44.4,29.84,WNW,295,0.0,2.0,91,0.00,,,0.01,Wunderground v.1.15,2013-10-23 02:07:00,
2013-10-22 21:12:00,46.9,44.7,29.84,WNW,284,1.0,2.0,92,0.00,,,0.01,Wunderground v.1.15,2013-10-23 02:12:00,
2013-10-22 21:18:00,47.1,44.9,29.84,WNW,290,2.0,3.0,92,0.00,,,0.01,Wunderground v.1.15,2013-10-23 02:18:00,
2013-10-22 21:23:00,47.1,44.9,29.84,WNW,297,3.0,5.0,92,0.00,,,0.01,Wunderground v.1.15,2013-10-23 02:23:00,
2013-10-22 21:28:00,47.3,45.1,29.84,WNW,284,4.0,6.0,92,0.00,,,0.01,Wunderground v.1.15,2013-10-23 02:28:00,
2013-10-22 21:33:00,47.6,45.4,29.84,West,281,5.0,6.0,92,0.00,,,0.01,Wunderground v.1.15,2013-10-23 02:33:00,
2013-10-22 21:39:00,47.8,45.6,29.85,WNW,287,4.0,7.0,92,0.00,,,0.01,Wunderground v.1.15,2013-10-23 02:39:00,
2013-10-22 21:44:00,47.9,45.7,29.85,WNW,291,5.0,6.0,92,0.00,,,0.01,Wunderground v.1.15,2013-10-23 02:44:00,
2013-10-22 21:49:00,48.0,45.8,29.85,WNW,293,6.0,9.0,92,0.00,,,0.01,Wunderground v.1.15,2013-10-23 02:49:00,
2013-10-22 21:55:00,48.1,45.9,29.85,WNW,290,8.0,10.0,92,0.00,,,0.01,Wunderground v.1.15,2013-10-23 02:55:00,
2013-10-22 22:00:00,48.3,46.1,29.85,NW,305,8.0,8.0,92,0.00,,,0.01,Wunderground v.1.15,2013-10-23 03:00:00,
2013-10-22 22:06:00,48.4,46.2,29.85,WNW,292,6.0,10.0,92,0.00,,,0.01,Wunderground v.1.15,2013-10-23 03:06:00,
2013-10-22 22:12:00,48.5,46.0,29.85,WNW,289,7.0,10.0,91,0.00,,,0.01,Wunderground v.1.15,2013-10-23 03:12:00,
2013-10-22 22:17:00,48.5,45.7,29.85,WNW,294,8.0,12.0,90,0.00,,,0.01,Wunderground v.1.15,2013-10-23 03:17:00,
2013-10-22 22:22:00,48.5,45.7,29.85,WNW,293,8.0,9.0,90,0.00,,,0.01,Wunderground v.1.15,2013-10-23 03:22:00,
2013-10-22 22:28:00,48.5,45.7,29.85,WNW,287,7.0,9.0,90,0.00,,,0.01,Wunderground v.1.15,2013-10-23 03:28:00,
2013-10-22 22:33:00,48.4,45.0,29.85,NW,305,8.0,16.0,88,0.00,,,0.01,Wunderground v.1.15,2013-10-23 03:33:00,
2013-10-22 22:39:00,48.1,44.7,29.85,WNW,291,10.0,16.0,88,0.00,,,0.01,Wunderground v.1.15,2013-10-23 03:39:00,
2013-10-22 22:44:00,47.8,44.4,29.85,WNW,294,10.0,16.0,88,0.00,,,0.01,Wunderground v.1.15,2013-10-23 03:44:00,
2013-10-22 22:50:00,47.4,44.0,29.85,WNW,290,10.0,10.0,88,0.00,,,0.01,Wunderground v.1.15,2013-10-23 03:50:00,
2013-10-22 22:55:00,47.2,43.8,29.86,NW,315,10.0,14.0,88,0.00,,,0.01,Wunderground v.1.15,2013-10-23 03:55:00,
2013-10-22 23:00:00,47.0,43.6,29.86,WNW,301,10.0,12.0,88,0.00,,,0.01,Wunderground v.1.15,2013-10-23 04:00:00,
2013-10-22 23:01:00,46.9,43.8,29.86,WNW,290,11.0,17.0,89,0.00,,,0.01,Wunderground v.1.15,2013-10-23 04:01:00,
2013-10-22 23:02:00,46.9,43.8,29.86,WNW,295,11.0,17.0,89,0.00,,,0.01,Wunderground v.1.15,2013-10-23 04:02:00,
2013-10-22 23:03:00,46.8,43.7,29.86,WNW,289,11.0,17.0,89,0.00,,,0.01,Wunderground v.1.15,2013-10-23 04:03:00,
2013-10-22 23:04:00,46.8,43.7,29.86,WNW,284,11.0,17.0,89,0.00,,,0.01,Wunderground v.1.15,2013-10-23 04:04:00,
2013-10-22 23:06:00,46.7,43.6,29.86,WNW,300,12.0,17.0,89,0.00,,,0.01,Wunderground v.1.15,2013-10-23 04:06:00,
2013-10-22 23:11:00,46.4,43.3,29.86,NW,305,11.0,12.0,89,0.00,,,0.01,Wunderground v.1.15,2013-10-23 04:11:00,
2013-10-22 23:12:00,46.4,43.3,29.86,NNW,333,11.0,12.0,89,0.00,,,0.01,Wunderground v.1.15,2013-10-23 04:12:00,
2013-10-22 23:17:00,46.3,43.2,29.86,WNW,291,9.0,13.0,89,0.00,,,0.01,Wunderground v.1.15,2013-10-23 04:17:00,
2013-10-22 23:22:00,46.1,43.6,29.86,WNW,294,9.0,10.0,91,0.00,,,0.01,Wunderground v.1.15,2013-10-23 04:22:00,
2013-10-22 23:27:00,45.7,43.2,29.86,WNW,288,10.0,16.0,91,0.00,,,0.01,Wunderground v.1.15,2013-10-23 04:27:00,
2013-10-22 23:32:00,45.4,42.9,29.86,WNW,288,11.0,11.0,91,0.00,,,0.01,Wunderground v.1.15,2013-10-23 04:32:00,
2013-10-22 23:38:00,45.3,43.1,29.86,WNW,286,9.0,13.0,92,0.00,,,0.01,Wunderground v.1.15,2013-10-23 04:38:00,
2013-10-22 23:43:00,45.3,42.8,29.86,WNW,286,9.0,9.0,91,0.00,,,0.01,Wunderground v.1.15,2013-10-23 04:43:00,
2013-10-22 23:48:00,45.3,42.8,29.86,WNW,291,9.0,10.0,91,0.00,,,0.01,Wunderground v.1.15,2013-10-23 04:48:00,
2013-10-22 23:53:00,45.2,42.4,29.86,WNW,290,10.0,13.0,90,0.00,,,0.01,Wunderground v.1.15,2013-10-23 04:53:00,
2013-10-22 23:58:00,45.0,42.5,29.86,WNW,285,11.0,14.0,91,0.00,,,0.01,Wunderground v.1.15,2013-10-23 04:58:00,